Home > Weather > Richmond > Past weeks

Flag for Canada Past Weather in Richmond, British Columbia, Canada — Yesterday and Last 2 Weeks

Now
70 °F

Passing clouds.


Feels Like: 70 °F
Forecast: 64 / 75 °F
Wind: 5 mph from Northwest

Location: Vancouver International Airport

Current Time: Aug 25, 2016 at 8:31:25 PM

Latest Report: Aug 25, 2016 at 8:00 PM


Visibility: 30 mi

Pressure: 29.96 "Hg

Humidity: 64%

Dew Point: 57 °F

Location of RichmondLocation

Past Weather in Richmond — Graph

°F

Richmond Temperature Yesterday

Maximum temperature yesterday: 75 °F (at 6:00 PM)
Minimum temperature yesterday: 59 °F (at 1:00 AM)
Average temperature yesterday: 66 °F

High & Low Weather Summary for the Past Weeks

 TemperatureHumidityPressure
High79 °F (Aug 19, 5:00 PM)94% (Aug 11, 12:00 AM)30.26 "Hg (Aug 11, 12:00 AM)
Low55 °F (Aug 23, 4:00 AM)47% (Aug 25, 6:00 PM)29.76 "Hg (Aug 21, 3:00 AM)
Average66 °F76%30.04 "Hg
* Reported Aug 10 7:00 PM — Aug 25 7:00 PM, Richmond, Weather by CustomWeather, © 2016

Note: Actual official high and low records may vary slightly from our data, if they occured in-between our weather recording intervals... More about our weather records

Advertising

Richmond Weather History for the Previous 24 Hours

Scroll right to see more
 ConditionsComfort  
Time TempWeatherWind HumidityBarometerVisibility
7:00 PM
Thu, Aug 25
75 °FSunny.2 mph50%29.97 "Hg30 mi
6:00 PM77 °FPassing clouds.3 mph47%29.99 "Hg30 mi
5:00 PM79 °FPassing clouds.5 mph48%30.01 "Hg30 mi
4:00 PM77 °FScattered clouds.8 mph51%30.03 "Hg30 mi
3:00 PM77 °FPartly sunny.8 mph54%30.05 "Hg30 mi
2:00 PM75 °FPassing clouds.10 mph57%30.07 "Hg30 mi
1:00 PM73 °FPassing clouds.10 mph65%30.09 "Hg30 mi
12:00 PM72 °FPassing clouds.13 mph65%30.11 "Hg30 mi
11:00 AM72 °FPassing clouds.14 mph65%30.12 "Hg30 mi
10:00 AM72 °FScattered clouds.12 mph65%30.13 "Hg30 mi
9:00 AM68 °FPassing clouds.12 mph73%30.14 "Hg30 mi
8:00 AM66 °FPassing clouds.9 mph78%30.15 "Hg30 mi
7:00 AM63 °FPassing clouds.9 mph88%30.15 "Hg30 mi
6:00 AM59 °FPassing clouds.7 mph94%30.14 "Hg30 mi
5:00 AM61 °FPassing clouds.9 mph88%30.13 "Hg30 mi
4:00 AM63 °FPassing clouds.5 mph77%30.13 "Hg30 mi
3:00 AM61 °FPassing clouds.3 mph88%30.13 "Hg30 mi
2:00 AM64 °FPassing clouds.5 mph78%30.13 "Hg30 mi
1:00 AM64 °FPassing clouds.2 mph83%30.13 "Hg30 mi
12:00 AM64 °FPassing clouds.3 mph83%30.12 "Hg30 mi
11:00 PM
Wed, Aug 24
63 °FPassing clouds.6 mph88%30.12 "Hg30 mi
10:00 PM66 °FPassing clouds.8 mph78%30.12 "Hg30 mi
9:00 PM66 °FPassing clouds.10 mph78%30.13 "Hg30 mi
8:00 PM68 °FPassing clouds.7 mph73%30.13 "Hg30 mi
Weather by CustomWeather, © 2016

See weather overviewHow to use our weather pages